This is the latest recevied weather packets stored in our database for station/object KQ4KX. If no packets are shown the sender has not sent any weather packets the latest 10 day(s).
| Time | Temp. | Humidity | Pressure | Rain* | Wind** | Luminosity | Snow |
|---|---|---|---|---|---|---|---|
| 1777739998 | 28.89° C | 73% | 1011.3 hPa | 0 mm | - | - | - |
| 1777739698 | 29.44° C | 73% | 1011.2 hPa | 0 mm | - | - | - |
| 1777738768 | 29.44° C | 72% | 1011.5 hPa | 0 mm | - | - | - |
| 1777738168 | 29.44° C | 73% | 1011.5 hPa | 0 mm | - | - | - |
| 1777737237 | 28.33° C | 75% | 1011.7 hPa | 0 mm | - | - | - |
| 1777736578 | 28.33° C | 76% | 1011.9 hPa | 0 mm | - | - | - |
| 1777736277 | 27.78° C | 76% | 1011.9 hPa | 0 mm | - | - | - |
| 1777735948 | 27.78° C | 78% | 1011.8 hPa | 0 mm | - | - | - |
| 1777735648 | 27.78° C | 79% | 1011.7 hPa | 0 mm | - | - | - |
| 1777735348 | 27.78° C | 80% | 1011.7 hPa | 0 mm | - | - | - |
| 1777735047 | 27.22° C | 80% | 1011.8 hPa | 0 mm | - | - | - |
| 1777734748 | 27.22° C | 81% | 1011.8 hPa | 0 mm | - | - | - |
| 1777734448 | 27.22° C | 81% | 1011.7 hPa | 0 mm | - | - | - |
| 1777734148 | 27.22° C | 81% | 1011.7 hPa | 0 mm | - | - | - |
| 1777733847 | 26.67° C | 81% | 1011.8 hPa | 0 mm | - | - | - |
| 1777732917 | 26.11° C | 84% | 1011.8 hPa | 0 mm | - | - | - |
| 1777732617 | 26.11° C | 84% | 1011.8 hPa | 0 mm | - | - | - |
| 1777732317 | 26.11° C | 84% | 1011.9 hPa | 0 mm | - | - | - |
| 1777731719 | 25.56° C | 84% | 1011.9 hPa | 0 mm | - | - | - |
| 1777731418 | 25.56° C | 84% | 1011.9 hPa | 0 mm | - | - | - |
| 1777731117 | 25.56° C | 84% | 1011.7 hPa | 0 mm | - | - | - |
| 1777730817 | 25.56° C | 84% | 1011.7 hPa | 0 mm | - | - | - |
| 1777730488 | 25.56° C | 84% | 1011.6 hPa | 0 mm | - | - | - |
| 1777730187 | 25.56° C | 84% | 1011.6 hPa | 0 mm | - | - | - |
| 1777729857 | 25.56° C | 85% | 1011.6 hPa | 0 mm | - | - | - |
* Rain latest hour (hover to see other rain measurements)
** Current wind speed in m/s (hover to see current wind gust speed)